Torna al catalogo

COSMOS 2452

AttivoNavigazionePO
NORAD 35499·PAYLOAD·🇷🇺 Russia

Lanciato Jul 6, 2009 da Plesetsk Cosmodrome

Loading…

Prossimi Passaggi (prossime 24 ore)

TLE

AggiornatoSource: Space-Track

Epoca: Sep 14, 2026, 18:30 UTC

1 35499U 09036B   26257.77140263  .00000023  00000-0  97238-4 0  9998
2 35499  82.4938  23.7730 0015012 304.0524  55.9130 12.43012736779909

Traccia COSMOS 2452 in tempo reale con AllMySat

Download on the App Store